Weather History for Sheboygan, WI

Change the Weather History Date:

Wednesday, November 14, 2012

  Actual Average Record
Temperature  
Mean Temperature 39 °F -  
Max Temperature 48 °F 44 °F 62 °F (1958)
Min Temperature 30 °F 30 °F 12 °F (1996)
Degree Days  
Heating Degree Days 26    
Moisture  
Dew Point 27 °F    
Average Humidity 60    
Maximum Humidity 72    
Minimum Humidity 44    
Precipitation  
Precipitation 0.00 in - - ()
Sea Level Pressure  
Sea Level Pressure 30.43 in    
Wind  
Wind Speed 7 mph (South)    
Max Wind Speed 17 mph    
Max Gust Speed -    
Visibility 10 miles    
Events      
Averages and records for this station are not official NWS values.
T = Trace of Precipitation, MM = Missing Value Source: NWS Daily Summary

Daily Weather History Graph

Daily Weather History Graph

Search for Another Location

Airport:

Trip Planner

Search our weather history database for the weather conditions in past years. The results will help you decide how hot, cold, wet, or windy it might be!

Date:

Astronomy

Nov. 14, 2012 Rise Set
Actual Time 6:45 AM CST 4:26 PM CST
Civil Twilight 6:14 AM CST 4:57 PM CST
Nautical Twilight 5:39 AM CST 5:31 PM CST
Astronomical Twilight 5:05 AM CST 6:05 PM CST
Moon 7:35 AM CST (11/14) 5:12 PM CST (11/14)
Length of Visible Light 10h 43m
Length of Day
9h 41m
New Moon, 1% of the Moon is Illuminated
Nov 14
New Moon
Nov 20
First Quarter
Nov 28
Full
Dec 6
Last Quarter
Dec 13
New

Hourly Weather History & Observations

Time (CST) Temp. Windchill Dew Point Humidity Pressure Visibility Wind Dir Wind Speed Gust Speed Precip Events Conditions
12:53 AM 30.0 °F 24.1 °F 21.0 °F 69% 30.48 in 10.0 mi WSW 5.8 mph - N/A   Clear
1:53 AM 30.0 °F - 21.0 °F 69% 30.49 in 10.0 mi Calm Calm - N/A   Clear
2:53 AM 30.0 °F - 21.9 °F 72% 30.49 in 10.0 mi Calm Calm - N/A   Scattered Clouds
3:53 AM 33.1 °F 30.0 °F 23.0 °F 66% 30.48 in 10.0 mi South 3.5 mph - N/A   Overcast
4:53 AM 34.0 °F 31.0 °F 24.1 °F 67% 30.49 in 10.0 mi South 3.5 mph - N/A   Overcast
5:53 AM 34.0 °F 28.8 °F 25.0 °F 70% 30.48 in 10.0 mi South 5.8 mph - N/A   Mostly Cloudy
6:53 AM 34.0 °F 28.0 °F 25.0 °F 70% 30.49 in 10.0 mi South 6.9 mph - N/A   Partly Cloudy
7:53 AM 35.1 °F 28.6 °F 25.0 °F 67% 30.49 in 10.0 mi South 8.1 mph - N/A   Overcast
8:53 AM 39.0 °F 32.3 °F 27.0 °F 62% 30.47 in 10.0 mi South 10.4 mph - N/A   Mostly Cloudy
9:53 AM 42.1 °F 36.1 °F 28.0 °F 58% 30.48 in 10.0 mi South 10.4 mph - N/A   Mostly Cloudy
10:53 AM 43.0 °F 36.0 °F 28.0 °F 56% 30.46 in 10.0 mi South 13.8 mph - N/A   Overcast
11:53 AM 46.9 °F - 27.0 °F 46% 30.43 in 10.0 mi SSW 13.8 mph - N/A   Overcast
12:53 PM 48.0 °F - 27.0 °F 44% 30.41 in 10.0 mi South 15.0 mph - N/A   Mostly Cloudy
1:53 PM 48.0 °F - 27.0 °F 44% 30.39 in 10.0 mi South 17.3 mph - N/A   Clear
2:53 PM 48.0 °F - 28.9 °F 48% 30.39 in 10.0 mi South 12.7 mph - N/A   Clear
3:53 PM 45.0 °F 40.1 °F 28.9 °F 53% 30.39 in 10.0 mi South 9.2 mph - N/A   Mostly Cloudy
4:53 PM 44.1 °F 39.0 °F 30.0 °F 58% 30.38 in 10.0 mi South 9.2 mph - N/A   Overcast
5:53 PM 45.0 °F 39.7 °F 32.0 °F 60% 30.38 in 10.0 mi South 10.4 mph - N/A   Overcast
6:53 PM 45.0 °F 39.7 °F 33.1 °F 63% 30.38 in 10.0 mi South 10.4 mph - N/A   Overcast
7:53 PM 44.1 °F 40.1 °F 33.1 °F 65% 30.38 in 10.0 mi South 6.9 mph - N/A   Overcast
8:53 PM 43.0 °F 37.2 °F 30.0 °F 60% 30.37 in 10.0 mi South 10.4 mph - N/A   Overcast
9:53 PM 42.1 °F 36.1 °F 28.9 °F 60% 30.36 in 10.0 mi South 10.4 mph - N/A   Overcast
10:53 PM 42.1 °F 35.7 °F 28.0 °F 58% 30.36 in 10.0 mi SSW 11.5 mph - N/A   Overcast
11:53 PM 39.9 °F 34.5 °F 27.0 °F 60% 30.36 in 10.0 mi South 8.1 mph - N/A   Mostly Cloudy